timestamp,wind_dir_avg,wind_spd_avg,wind_spd_max_dir,wind_spd_gust,battery_voltage,lat,long
2022-01-18 00:04:01+00:00,173.0,7.09,178.0,7.66,12.57,47.59359,-54.27349
2022-01-18 00:14:00+00:00,160.0,6.05,160.0,7.19,12.49,47.59359,-54.27349
2022-01-18 00:24:00+00:00,172.0,7.05,177.0,7.81,12.49,47.59359,-54.27349
2022-01-18 00:34:00+00:00,175.0,6.52,169.0,7.6,12.49,47.59359,-54.27349
2022-01-18 00:44:00+00:00,176.0,6.13,175.0,6.75,12.49,47.59359,-54.27349
2022-01-18 00:54:00+00:00,170.0,6.45,169.0,7.08,12.49,47.59359,-54.27349
2022-01-18 01:04:00+00:00,176.0,6.84,174.0,7.47,12.49,47.59359,-54.27349
2022-01-18 01:14:01+00:00,170.0,7.64,170.0,8.57,12.49,47.59359,-54.27349
2022-01-18 01:24:01+00:00,166.0,8.02,167.0,9.27,12.49,47.59359,-54.27349
2022-01-18 01:34:01+00:00,169.0,7.82,174.0,9.02,12.49,47.59359,-54.27349
2022-01-18 01:44:01+00:00,179.0,9.43,184.0,10.99,12.49,47.59359,-54.27349
2022-01-18 01:54:01+00:00,181.0,9.03,180.0,10.18,12.49,47.59359,-54.27349
2022-01-18 02:04:01+00:00,174.0,7.4,175.0,8.32,12.49,47.59359,-54.27349
2022-01-18 02:14:00+00:00,176.0,10.13,180.0,11.37,12.49,47.59359,-54.27349
2022-01-18 02:24:00+00:00,178.0,10.53,183.0,12.09,12.49,47.59359,-54.27349
2022-01-18 02:34:00+00:00,179.0,9.2,179.0,10.91,12.49,47.59359,-54.27349
2022-01-18 02:44:00+00:00,176.0,9.26,183.0,10.53,12.49,47.59359,-54.27349
2022-01-18 02:54:00+00:00,173.0,8.27,171.0,9.65,12.49,47.59359,-54.27349
2022-01-18 03:04:00+00:00,173.0,10.74,173.0,11.82,12.49,47.59359,-54.27349
2022-01-18 03:14:00+00:00,175.0,9.87,175.0,11.23,12.49,47.59359,-54.27349
2022-01-18 03:24:00+00:00,169.0,10.78,168.0,13.1,12.49,47.59359,-54.27349
2022-01-18 03:34:00+00:00,167.0,10.02,167.0,11.66,12.49,47.59359,-54.27349
2022-01-18 03:44:00+00:00,174.0,9.24,179.0,11.88,12.49,47.59359,-54.27349
2022-01-18 03:54:00+00:00,166.0,9.41,172.0,10.84,12.49,47.59359,-54.27349
2022-01-18 04:04:00+00:00,170.0,8.35,170.0,9.82,12.49,47.59359,-54.27349
2022-01-18 04:14:01+00:00,164.0,10.6,165.0,12.75,12.49,47.59359,-54.27349
2022-01-18 04:24:01+00:00,172.0,11.32,174.0,14.4,12.49,47.59359,-54.27349
2022-01-18 04:34:01+00:00,174.0,12.37,175.0,13.86,12.49,47.59359,-54.27349
2022-01-18 04:44:01+00:00,170.0,11.76,175.0,13.18,12.49,47.59359,-54.27349
2022-01-18 04:54:01+00:00,173.0,9.84,172.0,11.88,12.49,47.59359,-54.27349
2022-01-18 05:04:01+00:00,166.0,12.21,169.0,13.54,12.49,47.59359,-54.27349
2022-01-18 05:14:01+00:00,172.0,12.29,174.0,14.94,12.41,47.59359,-54.27349
2022-01-18 05:24:01+00:00,172.0,14.25,171.0,15.88,12.41,47.59359,-54.27349
2022-01-18 05:34:01+00:00,174.0,11.7,179.0,13.41,12.41,47.59359,-54.27349
2022-01-18 05:44:01+00:00,172.0,10.46,173.0,11.94,12.41,47.59359,-54.27349
2022-01-18 05:54:01+00:00,176.0,10.57,172.0,12.43,12.41,47.59359,-54.27349
2022-01-18 06:04:01+00:00,174.0,8.8,173.0,9.87,12.41,47.59359,-54.27349
2022-01-18 06:14:00+00:00,172.0,9.3,165.0,11.48,12.41,47.59359,-54.27349
2022-01-18 06:24:00+00:00,173.0,11.0,171.0,12.73,12.41,47.59359,-54.27349
2022-01-18 06:34:00+00:00,174.0,13.48,179.0,15.32,12.41,47.59359,-54.27349
2022-01-18 06:44:00+00:00,172.0,12.38,175.0,14.75,12.41,47.59359,-54.27349
2022-01-18 06:54:00+00:00,174.0,10.69,174.0,12.96,12.41,47.59359,-54.27349
2022-01-18 07:04:00+00:00,168.0,11.32,163.0,14.06,12.41,47.59359,-54.27349
2022-01-18 07:14:01+00:00,168.0,11.47,165.0,12.94,12.41,47.59359,-54.27349
2022-01-18 07:24:01+00:00,171.0,11.77,166.0,13.82,12.41,47.59359,-54.27349
2022-01-18 07:34:01+00:00,161.0,11.4,145.0,13.39,12.41,47.59359,-54.27349
2022-01-18 07:44:01+00:00,164.0,10.5,170.0,12.31,12.41,47.59359,-54.27349
2022-01-18 07:54:01+00:00,153.0,11.5,135.0,14.48,12.41,47.59359,-54.27349
2022-01-18 08:04:01+00:00,159.0,11.67,149.0,14.41,12.41,47.59359,-54.27349
2022-01-18 08:14:00+00:00,157.0,11.05,149.0,13.67,12.41,47.59359,-54.27349
2022-01-18 08:24:00+00:00,153.0,11.94,144.0,16.72,12.41,47.59359,-54.27349
2022-01-18 08:34:00+00:00,147.0,14.8,144.0,16.89,12.41,47.59359,-54.27349
2022-01-18 08:44:00+00:00,151.0,13.07,146.0,15.9,12.41,47.59359,-54.27349
2022-01-18 08:54:00+00:00,159.0,14.43,148.0,18.02,12.41,47.59359,-54.27349
2022-01-18 09:04:00+00:00,161.0,14.41,150.0,18.84,12.41,47.59359,-54.27349
2022-01-18 09:14:01+00:00,167.0,15.47,165.0,18.97,12.41,47.59359,-54.27349
2022-01-18 09:24:01+00:00,162.0,16.68,152.0,21.36,12.41,47.59359,-54.27349
2022-01-18 09:34:01+00:00,164.0,14.23,149.0,18.0,12.41,47.59359,-54.27349
2022-01-18 09:44:01+00:00,169.0,16.25,169.0,18.72,12.41,47.59359,-54.27349
2022-01-18 09:54:01+00:00,170.0,14.5,169.0,19.75,12.41,47.59359,-54.27349
2022-01-18 10:04:01+00:00,165.0,15.19,152.0,17.59,12.41,47.59359,-54.27349
2022-01-18 10:14:00+00:00,167.0,14.63,175.0,16.93,12.41,47.59359,-54.27349
2022-01-18 10:24:00+00:00,168.0,15.38,157.0,18.45,12.41,47.59359,-54.27349
2022-01-18 10:34:00+00:00,165.0,17.12,171.0,20.45,12.41,47.59359,-54.27349
2022-01-18 10:44:00+00:00,167.0,15.46,162.0,19.66,12.41,47.59359,-54.27349
2022-01-18 10:54:00+00:00,172.0,16.36,171.0,20.62,12.41,47.59359,-54.27349
2022-01-18 11:04:00+00:00,171.0,16.76,157.0,19.22,12.41,47.59359,-54.27349
2022-01-18 11:14:01+00:00,169.0,14.18,167.0,17.75,12.41,47.59359,-54.27349
2022-01-18 11:24:01+00:00,169.0,13.62,175.0,15.98,12.41,47.59359,-54.27349
2022-01-18 11:34:01+00:00,168.0,15.2,169.0,19.04,12.41,47.59359,-54.27349
2022-01-18 11:44:01+00:00,171.0,14.15,174.0,17.1,12.41,47.59359,-54.27349
2022-01-18 11:54:01+00:00,169.0,13.56,169.0,16.01,12.41,47.59359,-54.27349
2022-01-18 12:04:01+00:00,168.0,16.36,160.0,18.5,12.41,47.59359,-54.27349
2022-01-18 12:14:01+00:00,161.0,14.56,151.0,18.78,12.41,47.59359,-54.27349
2022-01-18 12:24:01+00:00,160.0,15.07,158.0,19.14,12.41,47.59359,-54.27349
2022-01-18 12:34:01+00:00,163.0,18.78,174.0,23.15,12.41,47.59359,-54.27349
2022-01-18 12:44:01+00:00,157.0,17.33,152.0,20.48,12.41,47.59359,-54.27349
2022-01-18 12:54:01+00:00,161.0,17.91,161.0,23.56,12.41,47.59359,-54.27349
2022-01-18 13:04:01+00:00,157.0,21.38,156.0,25.03,12.41,47.59359,-54.27349
2022-01-18 13:14:01+00:00,161.0,15.76,151.0,18.64,12.41,47.59359,-54.27349
2022-01-18 13:24:01+00:00,164.0,16.92,158.0,20.35,12.41,47.59359,-54.27349
2022-01-18 13:34:01+00:00,162.0,14.29,156.0,16.63,12.41,47.59359,-54.27349
2022-01-18 13:44:01+00:00,167.0,15.62,167.0,17.62,12.41,47.59359,-54.27349
2022-01-18 13:54:01+00:00,161.0,16.25,157.0,21.14,12.41,47.59359,-54.27349
2022-01-18 14:04:01+00:00,160.0,14.5,156.0,18.07,12.41,47.59359,-54.27349
2022-01-18 14:14:00+00:00,154.0,16.21,156.0,20.24,12.41,47.59359,-54.27349
2022-01-18 14:24:00+00:00,159.0,16.09,153.0,20.9,12.41,47.59359,-54.27349
2022-01-18 14:34:00+00:00,157.0,18.7,161.0,23.1,12.41,47.59359,-54.27349
2022-01-18 14:44:00+00:00,163.0,18.24,160.0,23.03,12.41,47.59359,-54.27349
2022-01-18 14:54:00+00:00,162.0,18.34,162.0,23.09,12.41,47.59359,-54.27349
2022-01-18 15:04:00+00:00,159.0,17.7,157.0,21.74,12.41,47.59359,-54.27349
2022-01-18 15:14:00+00:00,160.0,20.45,161.0,26.14,12.41,47.59359,-54.27349
2022-01-18 15:24:00+00:00,161.0,18.31,158.0,23.22,12.41,47.59359,-54.27349
2022-01-18 15:34:00+00:00,157.0,21.69,158.0,25.15,12.41,47.59359,-54.27349
2022-01-18 15:44:00+00:00,159.0,21.35,158.0,26.81,12.41,47.59359,-54.27349
2022-01-18 15:54:00+00:00,160.0,19.75,165.0,24.21,12.41,47.59359,-54.27349
2022-01-18 16:04:00+00:00,156.0,20.85,153.0,24.12,12.41,47.59359,-54.27349
2022-01-18 16:14:01+00:00,162.0,18.4,170.0,21.94,12.41,47.59359,-54.27349
2022-01-18 16:24:01+00:00,159.0,17.67,161.0,21.58,12.41,47.59359,-54.27349
2022-01-18 16:34:01+00:00,159.0,22.94,162.0,29.05,12.41,47.59359,-54.27349
2022-01-18 16:44:01+00:00,159.0,25.49,161.0,29.32,12.41,47.59359,-54.27349
2022-01-18 16:54:01+00:00,159.0,21.07,157.0,25.57,12.41,47.59359,-54.27349
2022-01-18 17:04:01+00:00,159.0,22.15,162.0,27.08,12.41,47.59359,-54.27349
2022-01-18 17:14:01+00:00,163.0,22.67,161.0,25.79,12.41,47.59359,-54.27349
2022-01-18 17:24:01+00:00,159.0,21.48,162.0,24.72,12.41,47.59359,-54.27349
2022-01-18 17:34:01+00:00,162.0,22.86,168.0,27.19,12.41,47.59359,-54.27349
2022-01-18 17:44:01+00:00,160.0,22.72,160.0,28.92,12.41,47.59359,-54.27349
2022-01-18 17:54:01+00:00,164.0,22.47,166.0,30.85,12.41,47.59359,-54.27349
2022-01-18 18:04:01+00:00,163.0,21.62,163.0,27.95,12.41,47.59359,-54.27349
2022-01-18 18:14:00+00:00,164.0,21.99,165.0,25.68,12.41,47.59359,-54.27349
2022-01-18 18:24:00+00:00,162.0,24.36,154.0,29.81,12.41,47.59359,-54.27349
2022-01-18 18:34:00+00:00,162.0,24.96,166.0,30.91,12.41,47.59359,-54.27349
2022-01-18 18:44:00+00:00,163.0,20.66,163.0,27.02,12.41,47.59359,-54.27349
2022-01-18 18:54:00+00:00,164.0,24.69,168.0,30.52,12.41,47.59359,-54.27349
2022-01-18 19:04:00+00:00,161.0,19.9,149.0,26.98,12.41,47.59359,-54.27349
2022-01-18 19:14:01+00:00,165.0,25.87,159.0,31.27,12.41,47.59359,-54.27349
2022-01-18 19:24:01+00:00,163.0,23.69,166.0,28.2,12.41,47.59359,-54.27349
2022-01-18 19:34:01+00:00,163.0,22.07,165.0,28.0,12.41,47.59359,-54.27349
2022-01-18 19:44:01+00:00,162.0,21.71,169.0,26.71,12.41,47.59359,-54.27349
2022-01-18 19:54:01+00:00,165.0,23.85,166.0,29.77,12.41,47.59359,-54.27349
2022-01-18 20:04:01+00:00,163.0,21.87,167.0,26.43,12.41,47.59359,-54.27349
2022-01-18 20:14:01+00:00,164.0,21.82,163.0,26.64,12.33,47.59359,-54.27349
2022-01-18 20:24:01+00:00,165.0,23.11,152.0,29.22,12.33,47.59359,-54.27349
2022-01-18 20:34:01+00:00,162.0,21.32,156.0,25.98,12.33,47.59359,-54.27349
2022-01-18 20:44:01+00:00,166.0,22.42,171.0,28.14,12.33,47.59359,-54.27349
2022-01-18 20:54:01+00:00,165.0,21.03,166.0,25.51,12.33,47.59359,-54.27349
2022-01-18 21:04:01+00:00,162.0,18.72,165.0,22.39,12.33,47.59359,-54.27349
2022-01-18 21:14:00+00:00,164.0,19.65,164.0,23.0,12.33,47.59359,-54.27349
2022-01-18 21:24:00+00:00,164.0,18.51,166.0,22.76,12.33,47.59359,-54.27349
2022-01-18 21:34:00+00:00,161.0,16.17,162.0,19.36,12.33,47.59359,-54.27349
2022-01-18 21:44:00+00:00,165.0,17.91,163.0,21.98,12.33,47.59359,-54.27349
2022-01-18 21:54:00+00:00,166.0,20.13,166.0,24.16,12.33,47.59359,-54.27349
2022-01-18 22:04:00+00:00,173.0,17.37,161.0,19.92,12.33,47.59359,-54.27349
2022-01-18 22:14:01+00:00,186.0,16.81,191.0,20.91,12.33,47.59359,-54.27349
2022-01-18 22:24:01+00:00,192.0,15.9,193.0,19.01,12.33,47.59359,-54.27349
2022-01-18 22:34:01+00:00,192.0,13.93,192.0,15.78,12.33,47.59359,-54.27349
2022-01-18 22:44:01+00:00,199.0,9.88,209.0,12.13,12.33,47.59359,-54.27349
2022-01-18 22:54:01+00:00,193.0,13.81,191.0,16.43,12.33,47.59359,-54.27349
2022-01-18 23:04:01+00:00,194.0,12.2,191.0,14.55,12.33,47.59359,-54.27349
2022-01-18 23:14:01+00:00,216.0,10.32,215.0,12.0,12.33,47.59359,-54.27349
2022-01-18 23:24:01+00:00,215.0,12.42,213.0,14.87,12.33,47.59359,-54.27349
2022-01-18 23:34:01+00:00,209.0,9.42,211.0,11.49,12.33,47.59359,-54.27349
2022-01-18 23:44:01+00:00,212.0,9.64,212.0,11.34,12.33,47.59359,-54.27349
2022-01-18 23:54:01+00:00,212.0,9.14,212.0,10.95,12.33,47.59359,-54.27349
